�������l�o���
Date,Time,MP-1(��Sv/h),MP-2(��Sv/h),MP-3(��Sv/h),MP-4(��Sv/h),MP-5(��Sv/h),MP-6(��Sv/h),MP-7(��Sv/h),MP-8(��Sv/h),����,����(m/s),���J
2017/08/10,00:00,0.947,1.486,0.987,1.785,1.216,0.516,0.944,0.872,�k,3.0,��
2017/08/10,00:10,0.946,1.487,0.985,1.781,1.216,0.515,0.944,0.873,�k,3.1,��
2017/08/10,00:20,0.947,1.484,0.985,1.781,1.217,0.515,0.946,0.872,�k,2.0,��
2017/08/10,00:30,0.948,1.486,0.986,1.784,1.215,0.515,0.947,0.874,�k�k��,3.2,��
2017/08/10,00:40,0.944,1.487,0.983,1.781,1.219,0.515,0.944,0.873,�k��,3.8,��
2017/08/10,00:50,0.947,1.487,0.984,1.783,1.218,0.513,0.944,0.872,�k�k��,4.5,��
2017/08/10,01:00,0.944,1.487,0.987,1.780,1.216,0.515,0.945,0.875,�k�k��,5.4,�L
2017/08/10,01:10,0.945,1.487,0.983,1.779,1.215,0.513,0.944,0.872,�k�k��,5.2,�L
2017/08/10,01:20,0.945,1.485,0.985,1.782,1.215,0.514,0.944,0.874,�k�k��,4.9,�L
2017/08/10,01:30,0.946,1.483,0.985,1.782,1.216,0.512,0.945,0.874,�k�k��,4.5,�L
2017/08/10,01:40,0.947,1.487,0.985,1.782,1.216,0.514,0.944,0.872,�k�k��,4.8,��
2017/08/10,01:50,0.947,1.485,0.984,1.782,1.216,0.512,0.945,0.875,�k�k��,4.0,��
2017/08/10,02:00,0.946,1.486,0.985,1.778,1.216,0.514,0.945,0.872,�k,2.6,��
2017/08/10,02:10,0.945,1.483,0.986,1.784,1.220,0.514,0.944,0.873,�k�k��,3.8,�L
2017/08/10,02:20,0.944,1.484,0.985,1.782,1.216,0.515,0.944,0.872,�k�k��,3.8,�L
2017/08/10,02:30,0.948,1.485,0.987,1.782,1.217,0.515,0.945,0.873,�k�k��,2.3,�L
2017/08/10,02:40,0.946,1.486,0.985,1.781,1.216,0.514,0.944,0.872,�k�k��,3.5,��
2017/08/10,02:50,0.948,1.485,0.985,1.783,1.215,0.515,0.944,0.872,�k,3.1,��
2017/08/10,03:00,0.947,1.485,0.986,1.781,1.218,0.516,0.946,0.874,�k,2.3,��
2017/08/10,03:10,0.948,1.485,0.988,1.782,1.217,0.516,0.944,0.872,�k,2.3,��
2017/08/10,03:20,0.945,1.488,0.985,1.784,1.219,0.515,0.945,0.875,�k,2.3,��
2017/08/10,03:30,0.947,1.486,0.986,1.782,1.220,0.515,0.945,0.872,�k�k��,2.0,��
2017/08/10,03:40,0.948,1.486,0.985,1.782,1.221,0.513,0.945,0.871,�k�k��,4.7,��
2017/08/10,03:50,0.948,1.485,0.985,1.784,1.218,0.515,0.948,0.873,�k�k��,5.5,��
2017/08/10,04:00,0.947,1.488,0.985,1.782,1.219,0.515,0.945,0.875,�k,4.0,��
2017/08/10,04:10,0.947,1.486,0.986,1.784,1.219,0.515,0.944,0.873,�k,2.8,��
2017/08/10,04:20,0.947,1.486,0.986,1.783,1.217,0.514,0.944,0.872,�k,3.0,��
2017/08/10,04:30,0.949,1.486,0.987,1.782,1.217,0.513,0.946,0.874,�k,2.6,��
2017/08/10,04:40,0.944,1.487,0.986,1.780,1.217,0.514,0.945,0.873,�k�k��,2.9,��
2017/08/10,04:50,0.948,1.486,0.986,1.783,1.218,0.514,0.945,0.873,�k�k��,2.3,��
2017/08/10,05:00,0.945,1.489,0.984,1.784,1.217,0.513,0.945,0.874,�k�k��,2.8,��
2017/08/10,05:10,0.947,1.486,0.986,1.783,1.218,0.513,0.945,0.872,�k�k��,1.9,��
2017/08/10,05:20,0.948,1.488,0.989,1.785,1.218,0.515,0.945,0.872,�k�k��,2.2,��
2017/08/10,05:30,0.946,1.489,0.987,1.782,1.218,0.515,0.943,0.874,�k�k��,2.9,�L
2017/08/10,05:40,0.948,1.489,0.986,1.785,1.221,0.512,0.943,0.873,�k�k��,3.0,�L
2017/08/10,05:50,0.949,1.489,0.985,1.785,1.218,0.514,0.944,0.872,�k�k��,2.3,�L
2017/08/10,06:00,0.947,1.487,0.985,1.785,1.218,0.514,0.944,0.873,�k�k��,2.2,��
2017/08/10,06:10,0.951,1.488,0.985,1.783,1.220,0.516,0.945,0.874,�k�k��,2.3,��
2017/08/10,06:20,0.949,1.487,0.983,1.784,1.219,0.516,0.945,0.872,�k�k��,2.3,��
2017/08/10,06:30,0.947,1.485,0.980,1.784,1.218,0.515,0.944,0.874,�k�k��,3.1,��
2017/08/10,06:40,0.950,1.489,0.973,1.786,1.220,0.513,0.944,0.875,�k�k��,3.1,��
2017/08/10,06:50,0.949,1.485,0.973,1.784,1.220,0.514,0.943,0.874,�k�k��,2.6,��
2017/08/10,07:00,0.949,1.486,0.969,1.784,1.218,0.515,0.944,0.875,�k�k��,2.3,��
2017/08/10,07:10,0.948,1.485,0.976,1.785,1.218,0.515,0.946,0.874,�k�k��,2.6,��
2017/08/10,07:20,0.946,1.485,0.973,1.782,1.218,0.514,0.945,0.874,�k�k��,3.1,��
2017/08/10,07:30,0.948,1.482,0.973,1.785,1.217,0.512,0.944,0.874,�k,2.8,��
2017/08/10,07:40,0.949,1.486,0.973,1.784,1.220,0.513,0.944,0.874,�k�k��,3.1,��
2017/08/10,07:50,0.947,1.487,0.975,1.784,1.221,0.513,0.945,0.873,�k,3.1,��
2017/08/10,08:00,0.948,1.489,0.974,1.784,1.221,0.514,0.944,0.872,�k,4.1,��
2017/08/10,08:10,0.948,1.486,0.975,1.784,1.219,0.516,0.944,0.874,�k�k��,5.3,��
2017/08/10,08:20,0.947,1.488,0.974,1.784,1.218,0.513,0.943,0.873,�k�k��,5.1,��
2017/08/10,08:30,0.949,1.492,0.950,1.782,1.221,0.514,0.943,0.873,�k�k��,4.4,��
2017/08/10,08:40,0.949,1.487,0.953,1.785,1.216,0.513,0.944,0.871,�k�k��,3.5,��
2017/08/10,08:50,0.949,1.487,0.954,1.785,1.219,0.513,0.943,0.871,�k�k��,4.9,��
2017/08/10,09:00,0.948,1.491,0.957,1.785,1.216,0.513,0.942,0.871,�k�k��,5.3,��
2017/08/10,09:10,0.949,1.490,0.984,1.785,1.220,0.512,0.943,0.870,�k,5.4,��
2017/08/10,09:20,0.949,1.488,0.984,1.784,1.220,0.514,0.946,0.871,�k�k��,5.5,��
2017/08/10,09:30,0.948,1.488,0.983,1.786,1.217,0.514,0.943,0.870,�k��,5.2,�L
2017/08/10,09:40,0.948,1.487,0.983,1.784,1.218,0.511,0.944,0.871,�k�k��,5.3,�L
2017/08/10,09:50,0.948,1.487,0.984,1.784,1.218,0.513,0.944,0.869,�k�k��,5.6,�L
2017/08/10,10:00,0.948,1.485,0.982,1.787,1.215,0.513,0.944,0.870,�k�k��,5.7,�L
2017/08/10,10:10,0.947,1.485,0.984,1.784,1.217,0.512,0.942,0.869,�k�k��,6.2,�L
2017/08/10,10:20,0.948,1.486,0.983,1.785,1.215,0.513,0.944,0.870,�k��,6.5,�L
2017/08/10,10:30,0.948,1.485,0.982,1.782,1.215,0.512,0.945,0.870,�k��,6.0,�L
2017/08/10,10:40,0.948,1.487,0.984,1.785,1.217,0.513,0.942,0.871,�k�k��,6.4,�L
2017/08/10,10:50,0.947,1.487,0.983,1.785,1.217,0.513,0.944,0.871,�k�k��,6.1,�L
2017/08/10,11:00,0.946,1.487,0.981,1.787,1.217,0.513,0.943,0.873,�k�k��,6.7,�L
2017/08/10,11:10,0.949,1.486,0.982,1.784,1.220,0.514,0.946,0.870,�k�k��,5.8,�L
2017/08/10,11:20,0.949,1.489,0.985,1.784,1.221,0.512,0.943,0.872,�k�k��,6.5,�L
2017/08/10,11:30,0.949,1.486,0.986,1.786,1.221,0.513,0.945,0.871,�k�k��,6.8,�L
2017/08/10,11:40,0.947,1.488,0.982,1.786,1.221,0.513,0.943,0.870,�k�k��,7.3,�L
2017/08/10,11:50,0.950,1.490,0.984,1.785,1.218,0.513,0.944,0.869,�k�k��,7.2,�L
2017/08/10,12:00,0.949,1.489,0.983,1.785,1.217,0.513,0.942,0.870,�k�k��,7.2,�L
2017/08/10,12:10,0.949,1.487,0.983,1.784,1.221,0.512,0.944,0.868,�k�k��,7.3,�L
2017/08/10,12:20,0.948,1.491,0.985,1.787,1.220,0.512,0.943,0.870,�k�k��,7.3,�L
2017/08/10,12:30,0.947,1.493,0.982,1.785,1.218,0.516,0.943,0.870,�k�k��,6.6,�L
2017/08/10,12:40,0.949,1.489,0.983,1.785,1.217,0.514,0.943,0.872,�k�k��,8.8,�L
2017/08/10,12:50,0.948,1.492,0.984,1.786,1.219,0.513,0.944,0.871,�k�k��,7.5,�L
2017/08/10,13:00,0.948,1.492,0.985,1.785,1.222,0.513,0.944,0.870,�k�k��,8.0,�L
2017/08/10,13:10,0.949,1.491,0.986,1.788,1.222,0.513,0.945,0.870,�k�k��,7.3,�L
2017/08/10,13:20,0.950,1.491,0.985,1.788,1.221,0.514,0.945,0.870,�k�k��,7.7,�L
2017/08/10,13:30,0.948,1.491,0.983,1.786,1.222,0.513,0.945,0.872,�k�k��,6.8,�L
2017/08/10,13:40,0.951,1.491,0.986,1.788,1.222,0.514,0.945,0.870,�k�k��,6.9,�L
2017/08/10,13:50,0.949,1.492,0.986,1.788,1.220,0.514,0.945,0.870,�k�k��,7.6,�L
2017/08/10,14:00,0.950,1.488,0.984,1.785,1.222,0.513,0.945,0.870,�k�k��,7.2,�L
2017/08/10,14:10,0.950,1.494,0.984,1.785,1.218,0.514,0.945,0.870,�k�k��,6.6,��
2017/08/10,14:20,0.951,1.492,0.983,1.786,1.220,0.515,0.944,0.872,�k�k��,5.8,�L
2017/08/10,14:30,0.949,1.493,0.987,1.788,1.219,0.513,0.944,0.870,�k,5.6,�L
2017/08/10,14:40,0.947,1.493,0.986,1.788,1.221,0.514,0.944,0.871,�k�k��,5.6,�L
2017/08/10,14:50,0.951,1.495,0.987,1.788,1.221,0.513,0.943,0.872,�k�k��,6.3,�L
2017/08/10,15:00,0.951,1.491,0.985,1.789,1.219,0.513,0.944,0.872,�k�k��,5.9,��
2017/08/10,15:10,0.950,1.494,0.986,1.785,1.218,0.513,0.944,0.870,�k�k��,6.0,�L
2017/08/10,15:20,0.948,1.493,0.986,1.788,1.223,0.513,0.945,0.872,�k�k��,6.9,��
2017/08/10,15:30,0.950,1.493,0.985,1.786,1.221,0.513,0.945,0.872,�k�k��,6.2,��
2017/08/10,15:40,0.948,1.491,0.986,1.790,1.222,0.514,0.947,0.871,�k�k��,6.4,��
2017/08/10,15:50,0.950,1.493,0.987,1.788,1.221,0.513,0.945,0.871,�k�k��,6.6,��
2017/08/10,16:00,0.950,1.492,0.985,1.786,1.220,0.513,0.946,0.873,�k�k��,6.9,��
2017/08/10,16:10,0.952,1.495,0.985,1.791,1.219,0.513,0.944,0.872,�k�k��,6.7,��
2017/08/10,16:20,0.950,1.494,0.987,1.790,1.220,0.512,0.944,0.871,�k�k��,6.3,��
2017/08/10,16:30,0.948,1.493,0.986,1.789,1.222,0.513,0.945,0.872,�k�k��,6.3,��
2017/08/10,16:40,0.949,1.495,0.986,1.788,1.221,0.513,0.946,0.872,�k�k��,6.2,��
2017/08/10,16:50,0.950,1.492,0.987,1.789,1.220,0.514,0.946,0.873,�k��,5.8,��
2017/08/10,17:00,0.950,1.494,0.985,1.787,1.222,0.514,0.946,0.871,�k�k��,5.6,�L
2017/08/10,17:10,0.950,1.494,0.988,1.789,1.222,0.512,0.947,0.871,�k�k��,5.5,�L
2017/08/10,17:20,0.949,1.495,0.986,1.785,1.223,0.513,0.945,0.872,�k�k��,6.8,��
2017/08/10,17:30,0.948,1.495,0.989,1.786,1.222,0.513,0.943,0.872,�k�k��,5.9,��
2017/08/10,17:40,0.950,1.491,0.989,1.787,1.221,0.513,0.945,0.872,�k�k��,5.7,�L
2017/08/10,17:50,0.950,1.494,0.991,1.788,1.221,0.513,0.945,0.872,�k�k��,5.5,��
2017/08/10,18:00,0.949,1.495,0.990,1.791,1.222,0.516,0.946,0.871,�k�k��,6.4,�L
2017/08/10,18:10,0.951,1.496,0.987,1.792,1.218,0.513,0.946,0.871,�k��,6.8,��
2017/08/10,18:20,0.950,1.494,0.989,1.789,1.223,0.514,0.944,0.873,�k�k��,7.2,�L
2017/08/10,18:30,0.950,1.494,0.988,1.792,1.222,0.514,0.946,0.873,�k�k��,6.7,��
2017/08/10,18:40,0.949,1.495,0.990,1.788,1.222,0.512,0.946,0.871,�k�k��,6.4,��
2017/08/10,18:50,0.948,1.496,0.986,1.790,1.221,0.514,0.945,0.871,�k�k��,6.2,��
2017/08/10,19:00,0.950,1.496,0.988,1.788,1.222,0.513,0.945,0.873,�k��,6.3,��
2017/08/10,19:10,0.950,1.496,0.988,1.790,1.221,0.513,0.946,0.872,�k��,6.7,�L
2017/08/10,19:20,0.950,1.495,0.990,1.789,1.221,0.515,0.947,0.872,�k�k��,6.3,�L
2017/08/10,19:30,0.949,1.496,0.988,1.791,1.219,0.515,0.946,0.872,�k�k��,4.8,�L
2017/08/10,19:40,0.951,1.497,0.988,1.790,1.223,0.513,0.945,0.871,�k��,5.2,�L
2017/08/10,19:50,0.949,1.496,0.989,1.789,1.223,0.515,0.945,0.873,�k��,6.0,�L
2017/08/10,20:00,0.950,1.497,0.989,1.787,1.220,0.513,0.947,0.872,�k��,6.6,��
2017/08/10,20:10,0.950,1.494,0.989,1.790,1.223,0.515,0.944,0.872,�k��,5.6,�L
2017/08/10,20:20,0.947,1.495,0.990,1.791,1.223,0.515,0.946,0.872,�k��,5.6,�L
2017/08/10,20:30,0.949,1.495,0.989,1.790,1.225,0.515,0.946,0.874,�k��,6.1,�L
2017/08/10,20:40,0.950,1.496,0.991,1.792,1.223,0.514,0.944,0.873,�k��,5.8,�L
2017/08/10,20:50,0.949,1.495,0.988,1.790,1.221,0.514,0.944,0.874,�k�k��,5.3,�L
2017/08/10,21:00,0.950,1.497,0.991,1.793,1.223,0.514,0.945,0.873,�k��,5.0,�L
2017/08/10,21:10,0.949,1.495,0.987,1.790,1.223,0.514,0.945,0.871,�k��,5.4,�L
2017/08/10,21:20,0.951,1.492,0.990,1.792,1.223,0.515,0.945,0.872,�k��,4.6,�L
2017/08/10,21:30,0.948,1.499,0.990,1.791,1.223,0.515,0.943,0.872,�k��,5.5,�L
2017/08/10,21:40,0.950,1.495,0.990,1.790,1.223,0.513,0.945,0.872,�k�k��,5.7,�L
2017/08/10,21:50,0.949,1.495,0.989,1.789,1.224,0.514,0.946,0.875,�k�k��,5.7,�L
2017/08/10,22:00,0.952,1.497,0.988,1.790,1.222,0.515,0.944,0.873,�k��,5.0,�L
2017/08/10,22:10,0.949,1.497,0.989,1.790,1.225,0.516,0.945,0.873,�k�k��,5.4,�L
2017/08/10,22:20,0.949,1.496,0.988,1.790,1.223,0.514,0.944,0.873,�k�k��,4.9,�L
2017/08/10,22:30,0.947,1.497,0.988,1.787,1.220,0.514,0.945,0.874,�k�k��,4.5,�L
2017/08/10,22:40,0.946,1.495,0.989,1.787,1.220,0.514,0.947,0.873,�k�k��,3.8,�L
2017/08/10,22:50,0.948,1.494,0.988,1.787,1.218,0.513,0.946,0.872,�k�k��,4.5,�L
2017/08/10,23:00,0.948,1.493,0.986,1.788,1.218,0.513,0.944,0.875,�k�k��,3.2,�L
2017/08/10,23:10,0.949,1.492,0.987,1.784,1.218,0.514,0.943,0.873,�k,3.1,�L
2017/08/10,23:20,0.945,1.493,0.989,1.786,1.216,0.513,0.942,0.873,�k�k��,4.6,�L
2017/08/10,23:30,0.949,1.495,0.987,1.787,1.216,0.512,0.944,0.873,�k�k��,4.0,�L
2017/08/10,23:40,0.947,1.491,0.988,1.787,1.216,0.515,0.944,0.874,�k�k��,3.6,�L
2017/08/10,23:50,0.949,1.492,0.986,1.785,1.214,0.513,0.944,0.872,�k�k��,5.0,�L
